星链-11466 (STARLINK-11466)

导读

STARLINK-11466是美国太空探索技术公司SpaceX星链星座的一员,于2024年12月5日发射入轨。星链项目旨在构建全球卫星互联网星座,为全球范围内偏远地区、移动场景等提供高速宽带网络服务,该卫星加入后进一步扩充了星链星座的在轨组网规模,提升星座服务覆盖能力与稳定性。

基本信息
目录编号:
62220
目录名称:
STARLINK-11466
国际标识:
2024-231C
轨道中心:
EARTH
卫星名称:
星链-11466
卫星全名:
星链-11466 (STARLINK-11466)
卫星状态:
在轨 (已飞行600 天)
发射日期:
2024-12-05 UTC
国别 :
美国 (US)
星等 :
--
轨道信息
数据来源 国际轨道数据
星历时间: 2026-07-27T13:14:43+0800
18小时前
查看轨道信息
半长轴: 6737.716km
偏心率: 0.0000846
轨道倾角: 53.157°
近地点辐角 74.336°
升交点赤经 133.622°
平近点角 285.775°
近地点: 359.008km
远地点: 360.15km
周期: 91.734分钟
每日圈数: 15.697617
详细信息
固有亮度:
5
最大亮度:
2.5
卫星平台:
Starlink V1.0
覆盖范围:
全球
运营商:
太空探索技术公司
运营商所在国:
美国
制造商(研发单位):
太空探索技术公司
制造商所在国:
美国
使用方式:
暂无
卫星简介
Starlink 计划是 SpaceX 推出的全球卫星互联网项目,通过发射低轨道卫星,为全球尤其是偏远地区提供高速、低延迟的互联网服务。自 2019 年起,Starlink 已部署数千颗卫星,旨在缩小全球数字鸿沟,推动互联网普及。该项目还为军事、航空等行业提供通信支持,带来广泛经济效益。
2D轨道图
3D轨道图
轨道高度分析图
轨道倾角分析图
轨道综合分析图
查看轨道综合分析图